User: anonymous   Login
Location: Seasalter
(51.3333°N, 1.0167°E)
Time: 12:28:34
(UTC+00:00)
Language:

Cosmos 1553 Rocket - Orbit

View from above orbital plane
View from above orbital plane
View from above satellite
View from above satellite

Ground track
Ground track

The orbit data is extracted from the following two-line orbital elements,

1 14974U 84046B   24056.92442167  .00000086  00000-0  71433-4 0  9995
2 14974  82.9357 123.4769 0044840   1.3621 171.6975 13.77028386998395
Epoch (UTC): 25 February 2024 22:11:10
Eccentricity: 0.0044840
inclination: 82.9357°
perigee height: 941 km
apogee height: 1007 km
right ascension of ascending node: 123.4769°
argument of perigee: 1.3621°
revolutions per day: 13.77028386
mean anomaly at epoch: 171.6975°
orbit number at epoch: 99839

The dashed part of the orbit path shows where the satellite is in the earth's shadow,  

DLR